Tarawa Terrace, NC

10:00 PM EDT on July 25, 2016 (GMT -0400)
New River Marine Corps Air Station

Weather History for KNCA - February, 2013

Change the Weather History Date:

Sunday, February 24, 2013

  Actual Average Record
Temperature  
Mean Temperature 52 °F -  
Max Temperature 63 °F 58 °F 73 °F (2012)
Min Temperature 39 °F 37 °F 24 °F (2009)
Degree Days  
Heating Degree Days 13    
Growing Degree Days 2 (Base 50)    
Moisture  
Dew Point 43 °F    
Average Humidity 84    
Maximum Humidity 93    
Minimum Humidity 43    
Precipitation  
Precipitation 0.01 in - - ()
Sea Level Pressure  
Sea Level Pressure 29.89 in    
Wind  
Wind Speed 6 mph (WNW)    
Max Wind Speed 13 mph    
Max Gust Speed -    
Visibility 4 miles    
Events Rain    
Averages and records for this station are not official NWS values.
T = Trace of Precipitation, MM = Missing Value Source: NWS Daily Summary

Daily Weather History Graph

Daily Weather History Graph

Search for Another Location

Airport or City:

Trip Planner

Search our weather history database for the weather conditions in past years. The results will help you decide how hot, cold, wet, or windy it might be!

Date:

Astronomy

Feb. 24, 2013 Rise Set
Actual Time 6:44 AM EST 6:01 PM EST
Civil Twilight 6:19 AM EST 6:26 PM EST
Nautical Twilight 5:50 AM EST 6:56 PM EST
Astronomical Twilight 5:20 AM EST 7:25 PM EST
Moon 5:10 PM EST (2/24) 5:39 AM EST (2/24)
Length of Visible Light 12h 07m
Length of Day
11h 16m
Waxing Gibbous, 99% of the Moon is Illuminated
Feb 24
Waxing Gibbous
Feb 25
Full
Mar 4
Last Quarter
Mar 11
New
Mar 19
First Quarter

Hourly Weather History & Observations

Time (EST) Temp. Windchill Dew Point Humidity Pressure Visibility Wind Dir Wind Speed Gust Speed Precip Events Conditions
12:32 AM 46.4 °F 44.3 °F 44.6 °F 93% 29.85 in 2.0 mi South 4.6 mph - 0.00 in Rain Light Rain
12:41 AM 46.4 °F 43.5 °F 44.6 °F 93% 29.81 in 1.5 mi SE 5.8 mph - 0.01 in Rain Light Rain
12:56 AM 46.9 °F - 45.0 °F 93% 29.85 in 3.0 mi Calm Calm - 0.01 in   Overcast
1:30 AM 46.4 °F 45.2 °F 44.6 °F 93% 29.82 in 2.5 mi WSW 3.5 mph - N/A   Overcast
1:56 AM 46.0 °F 41.9 °F 44.1 °F 93% 29.82 in 1.2 mi NW 8.1 mph - N/A   Overcast
2:09 AM 46.4 °F 41.1 °F 44.6 °F 93% 29.82 in 1.0 mi NW 11.5 mph - N/A   Mist
2:16 AM 46.4 °F 41.9 °F 44.6 °F 93% 29.81 in 0.8 mi NW 9.2 mph - N/A   Mist
2:24 AM 46.4 °F 43.5 °F 44.6 °F 93% 29.81 in 1.2 mi NW 5.8 mph - N/A   Overcast
2:34 AM 46.4 °F 44.3 °F 44.6 °F 93% 29.81 in 2.5 mi WNW 4.6 mph - N/A   Overcast
2:41 AM 46.4 °F 43.5 °F 44.6 °F 93% 29.81 in 3.0 mi NW 5.8 mph - N/A   Overcast
2:56 AM 46.0 °F 41.9 °F 44.1 °F 93% 29.81 in 2.5 mi NNW 8.1 mph - N/A   Overcast
3:08 AM 46.4 °F 42.9 °F 44.6 °F 93% 29.79 in 1.2 mi NNW 6.9 mph - N/A   Overcast
3:56 AM 46.0 °F 43.9 °F 44.1 °F 93% 29.80 in 1.8 mi WNW 4.6 mph - N/A   Overcast
4:11 AM 46.4 °F 45.2 °F 44.6 °F 93% 29.79 in 0.8 mi WNW 3.5 mph - N/A   Overcast
4:56 AM 46.0 °F 42.5 °F 44.1 °F 93% 29.83 in 0.8 mi WNW 6.9 mph - N/A   Mist
5:11 AM 46.4 °F 42.4 °F 44.6 °F 93% 29.82 in 1.0 mi West 8.1 mph - N/A   Mist
5:19 AM 46.4 °F 42.9 °F 44.6 °F 93% 29.82 in 1.2 mi WNW 6.9 mph - N/A   Overcast
5:40 AM 46.4 °F 41.5 °F 44.6 °F 93% 29.84 in 2.5 mi NW 10.4 mph - N/A   Overcast
5:56 AM 46.0 °F 41.9 °F 43.0 °F 89% 29.85 in 4.0 mi WNW 8.1 mph - N/A   Overcast
6:06 AM 46.4 °F 44.3 °F 44.6 °F 93% 29.84 in 6.0 mi WNW 4.6 mph - N/A   Overcast
6:26 AM 46.4 °F 43.5 °F 42.8 °F 87% 29.85 in 6.0 mi WNW 5.8 mph - N/A   Overcast
6:56 AM 46.0 °F 43.1 °F 43.0 °F 89% 29.87 in 6.0 mi NW 5.8 mph - N/A   Overcast
7:56 AM 46.9 °F - 44.1 °F 90% 29.89 in 4.0 mi WNW 5.8 mph - N/A   Overcast
8:56 AM 48.0 °F - 45.0 °F 89% 29.92 in 7.0 mi WNW 6.9 mph - N/A   Overcast
9:56 AM 48.9 °F - 45.0 °F 86% 29.94 in 7.0 mi WNW 11.5 mph - N/A   Overcast
10:37 AM 50.0 °F - 44.6 °F 82% 29.93 in 7.0 mi NW 11.5 mph - N/A   Overcast
10:56 AM 50.0 °F - 45.0 °F 83% 29.94 in 6.0 mi NW 12.7 mph - N/A   Haze
11:43 AM 53.6 °F - 46.4 °F 77% 29.94 in 7.0 mi NW 12.7 mph - N/A   Scattered Clouds
11:56 AM 55.0 °F - 46.0 °F 72% 29.95 in 7.0 mi WNW 11.5 mph - N/A   Partly Cloudy
12:56 PM 59.0 °F - 45.0 °F 60% 29.92 in 9.0 mi NW 9.2 mph - N/A   Clear
1:56 PM 62.1 °F - 42.1 °F 48% 29.91 in 10.0 mi NW 9.2 mph - N/A   Partly Cloudy
2:56 PM 63.0 °F - 39.9 °F 43% 29.90 in 10.0 mi NNW 8.1 mph - N/A   Clear
3:56 PM 63.0 °F - 39.9 °F 43% 29.91 in 10.0 mi West 9.2 mph - N/A   Clear
4:56 PM 62.1 °F - 39.0 °F 43% 29.91 in 10.0 mi WNW 5.8 mph - N/A   Clear
5:56 PM 57.9 °F - 39.0 °F 49% 29.93 in 10.0 mi Calm Calm - N/A   Clear
6:56 PM 52.0 °F - 46.0 °F 80% 29.96 in 10.0 mi South 5.8 mph - N/A   Clear
7:56 PM 46.9 °F - 44.1 °F 90% 29.99 in 7.0 mi Calm Calm - N/A   Clear
8:56 PM 45.0 °F - 42.1 °F 90% 30.00 in 4.0 mi Calm Calm - N/A   Clear
9:56 PM 44.1 °F - 41.0 °F 89% 30.01 in 4.0 mi Calm Calm - N/A   Clear
10:56 PM 42.1 °F - 39.9 °F 92% 30.01 in 3.0 mi Calm Calm - N/A   Clear
11:09 PM 41.0 °F - 39.2 °F 93% 30.00 in 2.5 mi Calm Calm - N/A   Clear
11:17 PM 41.0 °F 39.0 °F 37.4 °F 87% 30.01 in 4.0 mi WSW 3.5 mph - N/A   Clear
11:56 PM 39.9 °F - 37.9 °F 93% 30.02 in 4.0 mi Calm Calm - N/A   Clear